Back to catalog

STARLINK-32933

AliveCommunicationsVLEO
NORAD 63082·PAYLOAD·🇺🇸 United States

Launched Feb 23, 2025 from Vandenberg Space Force Base

Loading…

Next Passes (next 24 hours)

TLE

FreshSource: CelesTrak SupGP

Epoch: Sep 15, 2026, 03:06 UTC

1 63082C 25037F   26258.12965278 -.00038421  00000+0 -13366-2 0  2587
2 63082  70.0010 235.0123 0003268 267.4760  80.4065 15.29597449    15

Track STARLINK-32933 in real time with AllMySat

Download on the App Store